• Em Portugal
  • Lista de países
  • Para 7 dias
  • Temperatura da água
  • Mapas de satélite
  • Mapa do tempo
  • Widgets de tempo
  • user-avatar
    Iniciar Sessão

    Previsão horária em Yulara

    Hoje, 28 Maio, Segunda-feira

    Tempo Temperatura Precipitação Vento Pressão Humidade
    00:00 +19°C° 0 mm 4 m/s 718 mmHg 50%
    01:00 +19°C° 0 mm 4 m/s 718 mmHg 52%
    02:00 +18°C° 0 mm 4 m/s 718 mmHg 53%
    03:00 +18°C° 0 mm 4 m/s 718 mmHg 55%
    04:00 +17°C° 0 mm 4 m/s 718 mmHg 56%
    05:00 +17°C° 0 mm 4 m/s 719 mmHg 57%
    06:00 +15°C° 0 mm 4 m/s 719 mmHg 58%
    07:00 +18°C° 0 mm 4 m/s 719 mmHg 53%
    08:00 +19°C° 0 mm 4 m/s 720 mmHg 47%
    09:00 +21°C° 0 mm 4 m/s 720 mmHg 42%
    10:00 +22°C° 0 mm 3 m/s 720 mmHg 38%
    11:00 +25°C° 0 mm 2 m/s 720 mmHg 35%
    12:00 +27°C° 0 mm 2 m/s 720 mmHg 31%
    13:00 +27°C° 0 mm 2 m/s 720 mmHg 28%
    14:00 +28°C° 0 mm 2 m/s 719 mmHg 25%
    15:00 +29°C° 0 mm 2 m/s 719 mmHg 22%
    16:00 +27°C° 0 mm 3 m/s 719 mmHg 24%
    17:00 +25°C° 0 mm 3 m/s 719 mmHg 26%
    18:00 +23°C° 0 mm 4 m/s 719 mmHg 28%
    19:00 +22°C° 0 mm 4 m/s 719 mmHg 29%
    20:00 +21°C° 0 mm 5 m/s 720 mmHg 31%
    21:00 +20°C° 0 mm 5 m/s 720 mmHg 32%
    22:00 +19°C° 0 mm 5 m/s 721 mmHg 35%
    23:00 +19°C° 0 mm 5 m/s 721 mmHg 37%

    Amanhã, 29 Maio, Terça-feira

    Tempo Temperatura Precipitação Vento Pressão Humidade
    00:00 +17°C° 0 mm 5 m/s 721 mmHg 39%
    01:00 +17°C° 0 mm 6 m/s 721 mmHg 42%
    02:00 +16°C° 0 mm 6 m/s 721 mmHg 45%
    03:00 +15°C° 0 mm 6 m/s 721 mmHg 48%
    04:00 +15°C° 0 mm 6 m/s 721 mmHg 54%
    05:00 +14°C° 0 mm 6 m/s 721 mmHg 60%
    06:00 +13°C° 0 mm 6 m/s 722 mmHg 66%
    07:00 +14°C° 0 mm 6 m/s 722 mmHg 65%
    08:00 +15°C° 0 mm 7 m/s 723 mmHg 64%
    09:00 +16°C° 0 mm 8 m/s 723 mmHg 62%
    10:00 +17°C° 0 mm 8 m/s 723 mmHg 55%
    11:00 +20°C° 0 mm 7 m/s 723 mmHg 48%
    12:00 +22°C° 0 mm 7 m/s 723 mmHg 41%
    13:00 +23°C° 0 mm 7 m/s 723 mmHg 39%
    14:00 +23°C° 0 mm 6 m/s 722 mmHg 37%
    15:00 +24°C° 0 mm 6 m/s 722 mmHg 35%
    16:00 +22°C° 0 mm 6 m/s 722 mmHg 38%
    17:00 +21°C° 0 mm 5 m/s 722 mmHg 41%
    18:00 +20°C° 0 mm 5 m/s 723 mmHg 44%
    19:00 +19°C° 0 mm 6 m/s 723 mmHg 46%
    20:00 +17°C° 0 mm 6 m/s 724 mmHg 48%
    21:00 +16°C° 0 mm 7 m/s 724 mmHg 50%
    22:00 +15°C° 0 mm 7 m/s 724 mmHg 49%
    23:00 +14°C° 0 mm 7 m/s 724 mmHg 48%

    Depois de amanhã, 30 Maio, Quarta-feira

    Tempo Temperatura Precipitação Vento Pressão Humidade
    00:00 +14°C° 0 mm 7 m/s 725 mmHg 47%
    01:00 +13°C° 0 mm 6 m/s 724 mmHg 46%
    02:00 +13°C° 0 mm 6 m/s 724 mmHg 45%
    03:00 +11°C° 0 mm 6 m/s 724 mmHg 44%
    04:00 +11°C° 0 mm 6 m/s 724 mmHg 45%
    05:00 +10°C° 0 mm 6 m/s 724 mmHg 45%
    06:00 +10°C° 0 mm 6 m/s 724 mmHg 46%
    07:00 +11°C° 0 mm 7 m/s 725 mmHg 44%
    08:00 +12°C° 0 mm 8 m/s 725 mmHg 41%
    09:00 +13°C° 0 mm 9 m/s 726 mmHg 39%
    10:00 +16°C° 0 mm 9 m/s 725 mmHg 36%
    11:00 +18°C° 0 mm 9 m/s 725 mmHg 33%
    12:00 +20°C° 0 mm 8 m/s 725 mmHg 30%
    13:00 +21°C° 0 mm 8 m/s 724 mmHg 29%
    14:00 +22°C° 0 mm 7 m/s 724 mmHg 28%
    15:00 +22°C° 0 mm 7 m/s 723 mmHg 27%
    16:00 +21°C° 0 mm 6 m/s 723 mmHg 30%
    17:00 +19°C° 0 mm 6 m/s 723 mmHg 33%
    18:00 +17°C° 0 mm 5 m/s 723 mmHg 36%
    19:00 +16°C° 0 mm 5 m/s 723 mmHg 38%
    20:00 +15°C° 0 mm 5 m/s 724 mmHg 39%
    21:00 +14°C° 0 mm 5 m/s 724 mmHg 41%
    22:00 +13°C° 0 mm 5 m/s 724 mmHg 42%
    23:00 +13°C° 0 mm 5 m/s 724 mmHg 43%

    31 Maio, Quinta-feira

    Tempo Temperatura Precipitação Vento Pressão Humidade
    00:00 +12°C° 0 mm 5 m/s 724 mmHg 44%
    01:00 +12°C° 0 mm 5 m/s 724 mmHg 45%
    02:00 +10°C° 0 mm 5 m/s 724 mmHg 46%
    03:00 +10°C° 0 mm 5 m/s 724 mmHg 47%
    04:00 +10°C° 0 mm 5 m/s 724 mmHg 48%
    05:00 +9°C° 0 mm 5 m/s 724 mmHg 50%
    06:00 +9°C° 0 mm 5 m/s 724 mmHg 51%
    07:00 +10°C° 0 mm 5 m/s 725 mmHg 48%
    08:00 +11°C° 0 mm 6 m/s 725 mmHg 45%
    09:00 +12°C° 0 mm 7 m/s 725 mmHg 42%
    10:00 +15°C° 0 mm 7 m/s 725 mmHg 37%
    11:00 +17°C° 0 mm 7 m/s 725 mmHg 33%
    12:00 +20°C° 0 mm 7 m/s 724 mmHg 28%
    13:00 +21°C° 0 mm 6 m/s 723 mmHg 27%
    14:00 +22°C° 0 mm 5 m/s 723 mmHg 26%
    15:00 +23°C° 0 mm 5 m/s 722 mmHg 25%
    16:00 +21°C° 0 mm 5 m/s 722 mmHg 28%
    17:00 +20°C° 0 mm 4 m/s 722 mmHg 30%
    18:00 +18°C° 0 mm 4 m/s 722 mmHg 33%
    19:00 +17°C° 0 mm 4 m/s 722 mmHg 34%
    20:00 +15°C° 0 mm 5 m/s 723 mmHg 35%
    21:00 +15°C° 0 mm 5 m/s 723 mmHg 36%
    22:00 +14°C° 0 mm 5 m/s 723 mmHg 37%
    23:00 +13°C° 0 mm 4 m/s 723 mmHg 38%

    1 Junho, Sexta-feira

    Tempo Temperatura Precipitação Vento Pressão Humidade
    00:00 +12°C° 0 mm 4 m/s 723 mmHg 39%
    01:00 +12°C° 0 mm 4 m/s 723 mmHg 41%
    02:00 +11°C° 0 mm 4 m/s 723 mmHg 43%
    03:00 +11°C° 0 mm 4 m/s 723 mmHg 44%
    04:00 +10°C° 0 mm 4 m/s 723 mmHg 46%
    05:00 +10°C° 0 mm 3 m/s 723 mmHg 47%
    06:00 +9°C° 0 mm 3 m/s 723 mmHg 48%
    07:00 +11°C° 0 mm 4 m/s 724 mmHg 43%
    08:00 +12°C° 0 mm 4 m/s 724 mmHg 38%
    09:00 +14°C° 0 mm 4 m/s 724 mmHg 33%
    10:00 +17°C° 0 mm 4 m/s 724 mmHg 28%
    11:00 +19°C° 0 mm 4 m/s 724 mmHg 24%
    12:00 +21°C° 0 mm 4 m/s 724 mmHg 20%
    13:00 +22°C° 0 mm 3 m/s 723 mmHg 19%
    14:00 +22°C° 0 mm 3 m/s 722 mmHg 18%
    15:00 +24°C° 0 mm 3 m/s 722 mmHg 18%
    16:00 +21°C° 0 mm 3 m/s 722 mmHg 19%
    17:00 +19°C° 0 mm 3 m/s 722 mmHg 20%
    18:00 +18°C° 0 mm 3 m/s 722 mmHg 20%
    19:00 +17°C° 0 mm 4 m/s 723 mmHg 19%
    20:00 +15°C° 0 mm 4 m/s 723 mmHg 19%
    21:00 +14°C° 0 mm 4 m/s 723 mmHg 18%
    22:00 +13°C° 0 mm 4 m/s 723 mmHg 18%
    23:00 +12°C° 0 mm 4 m/s 723 mmHg 19%

    2 Junho, Sábado

    Tempo Temperatura Precipitação Vento Pressão Humidade
    00:00 +12°C° 0 mm 4 m/s 723 mmHg 20%
    01:00 +11°C° 0 mm 4 m/s 723 mmHg 21%
    02:00 +10°C° 0 mm 4 m/s 723 mmHg 22%
    03:00 +10°C° 0 mm 3 m/s 723 mmHg 23%
    04:00 +9°C° 0 mm 3 m/s 723 mmHg 24%
    05:00 +9°C° 0 mm 3 m/s 723 mmHg 24%
    06:00 +8°C° 0 mm 3 m/s 724 mmHg 25%
    07:00 +10°C° 0 mm 4 m/s 724 mmHg 23%
    08:00 +11°C° 0 mm 4 m/s 724 mmHg 21%
    09:00 +13°C° 0 mm 4 m/s 725 mmHg 19%
    10:00 +15°C° 0 mm 4 m/s 724 mmHg 17%
    11:00 +18°C° 0 mm 4 m/s 724 mmHg 14%
    12:00 +20°C° 0 mm 4 m/s 724 mmHg 12%
    13:00 +21°C° 0 mm 4 m/s 723 mmHg 11%
    14:00 +21°C° 0 mm 4 m/s 723 mmHg 10%
    15:00 +22°C° 0 mm 4 m/s 722 mmHg 9%
    16:00 +20°C° 0 mm 4 m/s 722 mmHg 11%
    17:00 +18°C° 0 mm 4 m/s 723 mmHg 13%
    18:00 +17°C° 0 mm 4 m/s 723 mmHg 14%
    19:00 +15°C° 0 mm 4 m/s 723 mmHg 16%
    20:00 +14°C° 0 mm 4 m/s 723 mmHg 18%
    21:00 +13°C° 0 mm 4 m/s 724 mmHg 20%
    22:00 +13°C° 0 mm 4 m/s 724 mmHg 24%
    23:00 +12°C° 0 mm 4 m/s 724 mmHg 28%
    Mostrar mais